Location: Ernsee
(50.8780°N, 12.0389°E)
Time: 12:11:45
(UTC+00:00)

CZ-2C R/B - Pass Details

Date: 20 January 2020
Orbit: 669 x 783 km, 98.1° (Epoch: 16 February)

Event Time Altitude Azimuth Distance (km) Brightness Sun altitude
Rises 04:09:28 0° 11° (N) 3,158 5.8 -27.0°
Reaches altitude 10° 04:11:45 10° 7° (N) 2,250 5.0 -26.7°
Enters shadow 04:13:58 26° 358° (N) 1,428 3.8 -26.3°
